Regional Weather Roundup
Issued by NWS Glasgow, MT

Home | Current Version | Previous Version | Text Only | Print | Product List | Glossary On
Versions: 1 2 3 4 5 6 7 8 9 10 11 12 13 14 15 16 17 18 19 20 21 22 23 24 25 26 27 28 29 30 31 32 33 34 35 36 37 38 39 40 41 42 43 44 45 46 47 48 49 50
002
ASUS45 KGGW 232215
RWRGGW
HOURLY REGIONAL WEATHER ROUNDUP FOR NORTHEAST MONTANA
NATIONAL WEATHER SERVICE GLASGOW MONTANA
300 PM MST TUE JAN 23 2018

NOTE: "FAIR" INDICATES FEW OR NO CLOUDS BELOW 12,000 FEET WITH NO
SIGNIFICANT WEATHER AND/OR OBSTRUCTIONS TO VISISBILITY.

NORTHEAST MONTANA


CITY           SKY/WX    TMP DP  RH WIND       PRES   REMARKS
GLASGOW        SUNNY     24  16  71 NW3       30.10S
PLENTYWOOD       N/A     33  24  69 SE3         N/A
WOLF POINT     SUNNY     25  17  72 W12       30.12S
JORDAN           N/A     34  22  61 W12       30.11S
WINNETT          N/A     40  20  44 W8          N/A
SIDNEY         FAIR      31  23  72 W5        30.12R
GLENDIVE       SUNNY     36  22  56 W8        30.13R
MALTA            N/A     31  23  72 SW7         N/A
SCOBEY           N/A     31  18  58 S6        30.05R

FORT PECK REPORTS


CITY           SKY/WX    TMP DP  RH WIND       PRES   REMARKS
FORT PECK        N/A     33  22  63 W7          N/A
THE PINES        N/A     40  22  48 S5          N/A

SOUTHEAST MONTANA


CITY           SKY/WX    TMP DP  RH WIND       PRES   REMARKS
BILLINGS       MOSUNNY   38  17  42 SW12      30.14F
MILES CITY     SUNNY     33  23  66 W8        30.14S
BAKER          SUNNY     33  23  66 W16       30.13R
LIVINGSTON     SUNNY     36  20  52 W17       30.10F

CENTRAL MONTANA


CITY           SKY/WX    TMP DP  RH WIND       PRES   REMARKS
HAVRE          SUNNY     30  25  81 SW8       30.06F
LEWISTOWN      SUNNY     33  20  58 W6        30.07F
GREAT FALLS    SUNNY     38  15  39 SW21G29   30.05F
CUT BANK       SUNNY     36  16  44 W24G32    29.99F
HELENA           N/A    N/A N/A N/A MISG      30.11F
BUTTE          PTSUNNY   28  13  53 CALM      30.12F
BOZEMAN        SUNNY     28  14  55 CALM      30.15F

WESTERN MONTANA


CITY           SKY/WX    TMP DP  RH WIND       PRES   REMARKS
MISSOULA       PTSUNNY   36  22  56 SE8       30.13F
KALISPELL      NOT AVBL

NORTH DAKOTA


CITY           SKY/WX    TMP DP  RH WIND       PRES   REMARKS
WILLISTON      SUNNY     29  20  69 W10       30.11R
DICKINSON      SUNNY     34  23  64 W13       30.07R
MINOT          CLOUDY    22  18  85 W7        30.10R
BISMARCK       SUNNY     34  24  67 NW12      30.11R

SOUTHERN SASKATCHEWAN


CITY           SKY/WX    TMP DP  RH WIND       PRES   REMARKS
REGINA         MOSUNNY   21  19  93 S5        30.04S FOG
MOOSE JAW      MOSUNNY   36  23  60 SW8       30.04S
ESTEVAN        CLOUDY    21  19  93 W7        30.08R FOG
SWIFT CURRENT  SUNNY     36  19  51 W12       29.99S





USA.gov is the U.S. government's official web portal to all federal, state and local government web resources and services.